Date String (YYYY-MM-DD hh:mm:ss) UTC,Instrument flags,Ambient pressure (hPa),Sample flow (lpm),Bypass flow (lpm),Sample temperature (°C),Ambient temperature (°C),ASC tube jacket temperature (°C),LED temperature (°C),Box temperature (°C),Sample RH (%),Span deviation,Mass concentration (μg/m³),Mass concentration (μg/m³),Mass concentration (μg/m³)
DateTimeUTC,F1_M11,P_M11,Q1_M11,Q2_M11,T1_M11,T2_M11,T3_M11,T4_M11,T5_M11,U1_M11,ZSPAN_M11,X2_M11,X0_M11,X1_M11
2022-12-03 11:00:00,,0831.2,5.00,0.00,21.9,20.6,00.0,30.8,23.7,07.1,0000.0,0002.59,0010.49,0001.41
2022-12-03 11:01:00,,0831.2,5.00,0.00,21.9,20.4,00.0,30.8,23.6,07.1,0000.0,0002.62,0011.13,0001.41
2022-12-03 11:02:00,,0831.1,5.00,0.00,21.9,20.4,00.0,30.8,23.6,07.1,0000.0,0002.61,0011.16,0001.40
2022-12-03 11:03:00,,0831.2,4.99,0.00,21.9,20.3,00.0,30.8,23.6,07.2,0000.0,0002.56,0011.08,0001.40
2022-12-03 11:04:00,,0831.4,5.00,0.00,21.8,20.2,00.0,30.8,23.5,07.2,0000.0,0002.64,0012.25,0001.43
2022-12-03 11:05:00,,0831.3,5.00,0.00,21.8,20.7,00.0,30.7,23.6,07.2,0000.0,0002.71,0012.82,0001.43
2022-12-03 11:06:00,,0831.4,5.01,0.00,21.9,21.7,00.0,30.7,23.8,07.2,0000.0,0002.80,0012.56,0001.45
2022-12-03 11:07:00,,0831.4,4.99,0.00,22.0,22.0,00.0,30.7,24.0,07.2,0000.0,0002.83,0012.08,0001.47
2022-12-03 11:08:00,,0831.3,4.99,0.00,22.0,21.6,00.0,30.8,23.9,07.3,0000.0,0002.81,0011.08,0001.49
2022-12-03 11:09:00,,0831.2,5.00,0.00,22.0,21.3,00.0,30.8,23.9,07.3,0000.0,0002.77,0010.67,0001.50
2022-12-03 11:10:00,,0831.2,5.00,0.00,22.0,21.0,00.0,30.8,23.8,07.4,0000.0,0002.80,0010.73,0001.50
2022-12-03 11:11:00,,0831.3,5.00,0.00,22.0,20.8,00.0,30.8,23.7,07.5,0000.0,0002.77,0010.74,0001.51
2022-12-03 11:12:00,,0831.4,5.00,0.00,21.9,20.7,00.0,30.8,23.7,07.6,0000.0,0002.69,0010.28,0001.51
2022-12-03 11:13:00,,0831.4,5.00,0.00,21.9,20.5,00.0,30.8,23.7,07.6,0000.0,0002.71,0009.93,0001.52
2022-12-03 11:14:00,,0831.4,5.00,0.00,21.9,20.4,00.0,30.8,23.6,07.7,0000.0,0002.81,0009.77,0001.55
2022-12-03 11:15:00,,0831.3,5.00,0.00,21.9,20.4,00.0,30.8,23.6,07.6,0000.0,0002.77,0008.95,0001.54
2022-12-03 11:16:00,,0831.5,5.01,0.00,21.9,21.1,00.0,30.7,23.7,07.6,0000.0,0002.69,0008.19,0001.54
2022-12-03 11:17:00,,0831.4,4.99,0.00,22.0,22.0,00.0,30.7,24.0,07.6,0000.0,0002.64,0007.75,0001.55
2022-12-03 11:18:00,,0831.4,4.99,0.00,22.1,21.9,00.0,30.8,24.0,07.5,0000.0,0002.64,0007.93,0001.55
2022-12-03 11:19:00,,0831.3,5.01,0.00,22.1,21.5,00.0,30.8,23.9,07.5,0000.0,0002.67,0008.08,0001.55
2022-12-03 11:20:00,,0831.4,5.00,0.00,22.0,21.2,00.0,30.8,23.8,07.4,0000.0,0002.73,0008.86,0001.58
2022-12-03 11:21:00,,0831.4,4.99,0.00,22.0,20.9,00.0,30.9,23.8,07.4,0000.0,0002.67,0008.64,0001.59
2022-12-03 11:22:00,,0831.5,5.00,0.00,22.0,20.7,00.0,30.9,23.7,07.4,0000.0,0002.64,0008.72,0001.58
2022-12-03 11:23:00,,0831.5,5.00,0.00,21.9,20.5,00.0,30.9,23.7,07.4,0000.0,0002.67,0008.83,0001.59
2022-12-03 11:24:00,,0831.5,5.00,0.00,21.9,20.4,00.0,30.9,23.6,07.4,0000.0,0002.64,0008.51,0001.58
2022-12-03 11:25:00,,0831.5,5.00,0.00,21.9,20.3,00.0,30.9,23.6,07.4,0000.0,0002.58,0008.84,0001.57
2022-12-03 11:26:00,,0831.5,5.00,0.00,21.9,20.2,00.0,30.8,23.6,07.4,0000.0,0002.59,0009.91,0001.57
2022-12-03 11:27:00,,0831.5,5.01,0.00,21.9,20.9,00.0,30.8,23.7,07.4,0000.0,0002.60,0010.77,0001.57
2022-12-03 11:28:00,,0831.6,5.01,0.00,22.0,21.9,00.0,30.8,23.9,07.4,0000.0,0002.60,0011.20,0001.57
2022-12-03 11:29:00,,0831.5,4.99,0.00,22.1,22.1,00.0,30.8,24.0,07.4,0000.0,0002.60,0011.10,0001.56
2022-12-03 11:30:00,,0831.5,4.99,0.00,22.1,21.7,00.0,30.8,24.0,07.4,0000.0,0002.61,0010.98,0001.55
2022-12-03 11:31:00,,0831.5,5.01,0.00,22.1,21.4,00.0,30.9,23.8,07.4,0000.0,0002.62,0010.57,0001.55
2022-12-03 11:32:00,,0831.6,5.00,0.00,22.0,21.1,00.0,30.9,23.8,07.5,0000.0,0002.62,0010.69,0001.56
2022-12-03 11:33:00,,0831.6,5.00,0.00,22.0,20.9,00.0,30.9,23.7,07.5,0000.0,0002.66,0010.34,0001.59
2022-12-03 11:34:00,,0831.5,5.00,0.00,22.0,20.7,00.0,30.9,23.7,07.6,0000.0,0002.64,0010.07,0001.60
2022-12-03 11:35:00,,0831.5,5.00,0.00,21.9,20.6,00.0,30.9,23.7,07.6,0000.0,0002.62,0010.05,0001.62
2022-12-03 11:36:00,,0831.5,5.00,0.00,21.9,20.5,00.0,30.9,23.6,07.6,0000.0,0002.62,0009.94,0001.63
2022-12-03 11:37:00,,0831.5,5.00,0.00,21.9,20.9,00.0,30.8,23.7,07.6,0000.0,0002.63,0009.07,0001.66
2022-12-03 11:38:00,,0831.5,5.02,0.00,22.0,21.9,00.0,30.8,23.9,07.6,0000.0,0002.66,0008.17,0001.69
2022-12-03 11:39:00,,0831.5,4.99,0.00,22.1,22.2,00.0,30.8,24.1,07.6,0000.0,0002.65,0007.58,0001.70
2022-12-03 11:40:00,,0831.6,4.99,0.00,22.1,21.8,00.0,30.9,24.0,07.6,0000.0,0002.67,0007.56,0001.71
2022-12-03 11:41:00,,0831.6,5.00,0.00,22.1,21.4,00.0,30.9,23.9,07.6,0000.0,0002.65,0007.69,0001.73
2022-12-03 11:42:00,,0831.5,5.01,0.00,22.1,21.1,00.0,30.9,23.9,07.6,0000.0,0002.59,0007.50,0001.74
2022-12-03 11:43:00,,0831.4,5.00,0.00,22.0,20.9,00.0,30.9,23.7,07.6,0000.0,0002.59,0007.30,0001.76
2022-12-03 11:44:00,,0831.5,5.00,0.00,22.0,20.7,00.0,30.9,23.7,07.6,0000.0,0002.58,0006.73,0001.76
2022-12-03 11:45:00,,0831.5,5.00,0.00,22.0,20.5,00.0,30.9,23.7,07.6,0000.0,0002.60,0006.67,0001.76
2022-12-03 11:46:00,,0831.5,5.00,0.00,22.0,20.5,00.0,30.9,23.6,07.6,0000.0,0002.66,0006.87,0001.76
2022-12-03 11:47:00,,0831.5,5.02,0.00,22.0,21.3,00.0,30.9,23.8,07.6,0000.0,0002.72,0006.79,0001.77
2022-12-03 11:48:00,,0831.6,4.99,0.00,22.1,22.2,00.0,30.8,24.1,07.6,0000.0,0002.72,0006.53,0001.76
2022-12-03 11:49:00,,0831.6,4.99,0.00,22.2,22.0,00.0,30.9,24.1,07.6,0000.0,0002.73,0006.48,0001.77
2022-12-03 11:50:00,,0831.5,5.00,0.00,22.2,21.6,00.0,30.9,24.0,07.6,0000.0,0002.80,0006.84,0001.79
2022-12-03 11:51:00,,0831.5,5.01,0.00,22.1,21.3,00.0,31.0,23.9,07.6,0000.0,0002.88,0007.08,0001.82
2022-12-03 11:52:00,,0831.5,5.01,0.00,22.1,21.0,00.0,31.0,23.9,07.7,0000.0,0002.93,0007.43,0001.82
2022-12-03 11:53:00,,0831.5,5.00,0.00,22.1,20.8,00.0,31.0,23.8,07.7,0000.0,0002.93,0007.32,0001.81
2022-12-03 11:54:00,,0831.6,5.00,0.00,22.0,20.7,00.0,31.0,23.8,07.7,0000.0,0003.02,0007.42,0001.81
2022-12-03 11:55:00,,0831.6,5.00,0.00,22.0,20.6,00.0,31.0,23.7,07.7,0000.0,0002.96,0007.24,0001.80
2022-12-03 11:56:00,,0831.6,5.00,0.00,22.0,20.5,00.0,31.0,23.7,07.7,0000.0,0002.99,0007.11,0001.79
2022-12-03 11:57:00,,0831.5,5.00,0.00,22.0,20.7,00.0,30.9,23.7,07.8,0000.0,0002.96,0006.77,0001.79
2022-12-03 11:58:00,,0831.6,5.00,0.00,22.1,21.6,00.0,30.9,23.9,07.7,0000.0,0002.96,0007.39,0001.80
2022-12-03 11:59:00,,0831.6,4.99,0.00,22.2,22.2,00.0,30.9,24.1,07.7,0000.0,0002.94,0007.32,0001.79
